Regional Weather Roundup
Issued by NWS

Home | Current Version | Previous Version | Text Only | Print | Product List | Glossary On
Versions: 1 2 3 4 5 6 7 8 9 10 11 12 13 14 15 16 17 18 19 20 21 22 23 24 25 26 27 28 29 30 31 32 33 34 35 36 37 38 39 40 41 42 43 44 45 46 47 48 49 50
000
ASUS46 KSEW 260110
RWRWA

WASHINGTON REGIONAL WEATHER ROUNDUP
NATIONAL WEATHER SERVICE SEATTLE WA
600 PM PDT FRI JUL 25 2014

NOTE:"FAIR" INDICATES FEW OR NO CLOUDS BELOW 12,000 FEET WITH NO
SIGNIFICANT WEATHER AND/OR OBSTRUCTIONS TO VISIBILITY.

WAZ505-507>509-260200-
SEATTLE, TACOMA, EVERETT, AND VICINITY

CITY           SKY/WX    TMP DP  RH WIND       PRES   REMARKS
EVERETT        SUNNY     68  50  52 N7        30.12S
BOEING FIELD   SUNNY     74  50  42 NW7       30.09F
RENTON         SUNNY     73  53  49 NW8       30.08F
SEATAC AIRPORT MOSUNNY   72  50  45 W8        30.11F
JBLM-MCCHORD   SUNNY     74  52  45 N8        30.10S
PUYALLUP       FAIR      73  54  49 CALM      30.10F
JBLM-FT LEWIS  SUNNY     73  49  42 W5        30.09F
TACOMA NARROWS MOSUNNY   73  50  44 CALM      30.09F
$$

WAZ001-503-506-510-514-515-260200-
NORTH INTERIOR

CITY           SKY/WX    TMP DP  RH WIND       PRES   REMARKS
BELLINGHAM     SUNNY     70  50  49 VRB3      30.10F
FRIDAY HARBOR  MOSUNNY   69  50  50 SW6       30.12F
EASTSOUND      SUNNY     66  48  52 CALM      30.10S
PORT ANGELES   SUNNY     66  52  60 NW7       30.13F
NAS WHIDBEY    MOSUNNY   63  53  70 W7        30.13F
BURLINGTON     SUNNY     72  50  46 NW8       30.12S
$$

WAZ020-022-039-040-504-511-512-260200-
SOUTHWEST INTERIOR

CITY           SKY/WX    TMP DP  RH WIND       PRES   REMARKS
SHELTON        MOSUNNY   74  51  44 VRB5      30.07F
OLYMPIA        SUNNY     74  50  42 NE6       30.09F
CHEHALIS       FAIR      75  55  50 VRB5      30.09S
KELSO          SUNNY     75  55  50 W6        30.10S
VANCOUVER      SUNNY     77  51  40 N9        30.05S
SCAPPOOSE, OR  SUNNY     77  51  40 N14       30.05S
PORTLAND, OR   MOSUNNY   78  54  43 N7        30.05F
$$

WAZ021-516-517-260200-
WASHINGTON COAST

CITY           SKY/WX    TMP DP  RH WIND       PRES   REMARKS
FORKS          MOSUNNY   67  52  58 W9        30.14F
HOQUIAM        SUNNY     68  54  60 W12       30.12F
ASTORIA, OR    SUNNY     66  52  60 NW13      30.11F
$$

WAZ019-023-024-040-518-519-260200-
CASCADE MOUNTAINS AND COLUMBIA GORGE

CITY           SKY/WX    TMP DP  RH WIND       PRES   REMARKS
STAMPEDE PASS  NOT AVBL
TROUTDALE, OR  SUNNY     78  48  34 VRB5      30.03F
THE DALLES, OR SUNNY     85  45  24 NW14      29.96S
$$

WAZ026-027-041>044-520-521-260200-
EAST SLOPES

CITY           SKY/WX    TMP DP  RH WIND       PRES   REMARKS
OMAK           SUNNY     83  39  21 S6        29.98F
WENATCHEE      SUNNY     83  44  25 SE6       29.98F
ELLENSBURG     SUNNY     84  44  24 MISG      30.01F
YAKIMA         MOSUNNY   84  44  24 S5        29.98F
$$

WAZ028-034-035-260200-
COLUMBIA BASIN

CITY           SKY/WX    TMP DP  RH WIND       PRES   REMARKS
EPHRATA        SUNNY     80  43  26 SW7       30.00F
MOSES LAKE     SUNNY     81  42  25 W6        30.01F
PASCO          SUNNY     83  48  29 N5        29.98F
HERMISTON, OR  SUNNY     84  41  21 VRB3      29.98F
$$

WAZ036>038-260200-
NORTHEAST WASHINGTON

CITY           SKY/WX    TMP DP  RH WIND       PRES   REMARKS
SPOKANE GEIGER MOSUNNY   76  36  23 NW8       30.04F
SPOKANE FELTS  SUNNY     79  38  22 MISG      30.03F
FAIRCHILD AFB  SUNNY     76  39  26 SW6       30.05F
COEURDALENE,ID SUNNY     75  43  31 W7        30.04F
DEER PARK      SUNNY     77  38  24 S5        30.04F
$$

WAZ029>033-260200-
SOUTHEAST WASHINGTON

CITY           SKY/WX    TMP DP  RH WIND       PRES   REMARKS
PULLMAN        FAIR      75  40  28 VRB5      30.08F
LEWISTON, ID   SUNNY     83  42  23 W7        30.00F
WALLA WALLA    SUNNY     83  35  18 CALM      30.01F
PENDLETON, OR  SUNNY     82  36  19 NW9       30.00F
$$



USA.gov is the U.S. government's official web portal to all federal, state and local government web resources and services.